Date,TemperatureHighF,TemperatureAvgF,TemperatureLowF,DewpointHighF,DewpointAvgF,DewpointLowF,HumidityHigh,HumidityAvg,HumidityLow,PressureMaxIn,PressureMinIn,WindSpeedMaxMPH,WindSpeedAvgMPH,GustSpeedMaxMPH,PrecipitationSumIn
2012-1-1,68.8,45.7,34.4,47.1,37.8,31.2,91,76,45,30.21,30.11,0,0,0,0.00
2012-1-2,57.6,48.3,38.7,49.6,43.6,34.6,90,84,73,30.32,30.15,0,0,0,0.00
2012-1-3,64.5,52.0,42.7,49.4,44.2,39.1,90,76,58,30.33,30.27,0,0,0,0.00
2012-1-4,75.1,50.7,38.6,47.0,41.0,35.6,94,72,33,30.40,30.28,0,0,0,0.00
2012-1-5,71.9,52.0,42.2,49.0,39.9,35.0,83,65,33,30.31,30.14,0,0,0,0.00
2012-1-6,65.9,46.5,36.5,45.4,39.0,33.0,89,76,45,30.20,30.10,0,0,0,0.00
2012-1-7,75.2,54.4,40.9,39.6,30.9,18.5,80,46,19,30.26,30.14,0,0,0,0.00
2012-1-8,69.8,49.7,38.8,36.4,28.9,20.6,69,46,27,30.23,30.15,0,0,0,0.00
2012-1-9,69.2,45.9,34.3,40.7,33.7,28.0,82,64,33,30.26,30.16,0,0,0,0.00
2012-1-10,48.2,37.7,34.6,40.9,32.8,30.5,92,83,66,30.19,30.14,0,0,0,0.00
2012-1-11,70.0,46.9,34.8,40.8,35.1,30.1,83,66,32,30.14,30.03,0,0,0,0.00
2012-1-12,67.7,46.1,34.2,39.5,33.9,30.2,86,65,33,30.14,30.04,0,0,0,0.00
2012-1-13,69.0,41.9,33.7,40.4,31.5,27.9,80,68,35,30.23,30.15,0,0,0,0.00
2012-1-14,40.8,35.3,32.9,33.7,29.6,27.4,82,79,75,30.19,30.16,0,0,0,0.00
2012-1-15,59.0,45.5,38.8,41.7,32.9,25.3,90,63,41,30.18,29.98,0,0,0,0.00
2012-1-16,54.3,38.9,28.8,26.0,22.6,17.0,75,54,25,30.34,30.17,0,0,0,0.00
2012-1-17,54.7,37.4,26.2,34.3,28.2,21.3,88,71,45,30.43,30.33,0,0,1,0.00
2012-1-18,54.6,42.3,31.1,42.1,35.8,27.2,89,78,60,30.42,30.26,0,0,1,0.00
2012-1-19,47.6,45.9,42.5,45.1,42.8,38.5,91,89,86,30.26,30.03,0,0,0,0.55
2012-1-20,55.5,51.3,47.6,53.2,49.0,45.1,92,92,91,30.03,29.67,0,0,0,2.24
2012-1-21,55.8,47.1,38.6,50.5,41.7,34.1,92,82,59,30.15,29.67,0,0,0,0.26
2012-1-22,50.5,44.5,39.1,48.3,41.4,35.8,92,89,84,30.18,29.77,0,0,0,1.13
2012-1-23,58.3,49.3,41.3,51.1,45.7,38.3,92,87,72,30.16,29.60,0,0,0,1.41
2012-1-24,59.4,48.3,41.9,48.5,43.4,38.8,91,84,64,30.43,30.16,0,0,0,0.00
2012-1-25,66.6,54.4,44.2,54.9,48.9,40.5,89,82,65,30.44,30.32,0,0,0,0.00
2012-1-26,67.8,54.8,48.2,57.2,50.9,45.1,92,87,66,30.34,30.22,0,0,0,0.01
2012-1-27,78.2,52.7,40.0,47.5,35.7,25.9,90,58,19,30.28,30.19,0,0,0,0.00
2012-1-28,65.6,46.2,33.5,39.2,33.5,28.9,85,64,33,30.34,30.24,0,0,0,0.00
2012-1-29,66.0,48.5,36.1,44.7,38.1,31.1,85,69,41,30.29,30.12,0,0,0,0.00
2012-1-30,61.0,50.6,41.5,48.3,42.2,36.2,89,74,58,30.13,30.00,0,0,0,0.00
2012-1-31,54.9,46.1,38.2,47.7,42.2,35.5,91,86,73,30.20,30.07,0,0,0,0.00
2012-2-1,63.6,50.5,43.1,49.4,44.6,39.4,91,81,54,30.28,30.18,0,0,0,0.04
2012-2-2,71.3,55.0,41.6,47.7,39.9,27.5,92,62,21,30.25,29.96,0,0,0,0.00
2012-2-3,66.2,47.1,37.1,44.5,37.7,33.9,90,72,39,30.05,29.98,0,0,0,0.00
2012-2-4,69.5,48.6,37.0,41.4,36.0,31.4,84,65,33,30.11,30.05,0,0,0,0.00
2012-2-5,66.8,45.9,37.0,46.0,35.8,31.4,82,69,41,30.12,29.99,0,0,0,0.00
2012-2-6,68.8,53.0,41.6,45.7,37.0,32.3,83,56,33,29.99,29.76,0,0,0,0.07
2012-2-7,52.1,50.1,48.7,48.7,46.6,44.7,92,88,83,30.12,29.77,0,0,0,0.83
2012-2-8,68.0,50.6,40.9,55.1,45.2,38.4,92,83,58,30.25,30.11,0,0,0,0.01
2012-2-9,73.0,52.9,41.3,54.0,45.1,38.6,92,77,49,30.28,30.14,0,0,0,0.00
2012-2-10,57.1,50.4,42.2,53.5,46.9,38.6,90,88,79,30.19,30.07,0,0,0,0.06
2012-2-11,64.5,51.4,42.2,52.4,46.2,38.9,92,83,59,30.07,29.98,0,0,0,0.01
2012-2-12,58.5,45.6,36.1,47.6,40.6,33.4,91,83,66,30.07,29.94,0,0,0,0.22
2012-2-13,59.7,45.7,38.1,45.4,40.1,34.6,91,82,56,30.02,29.89,0,0,0,0.01
2012-2-14,63.5,47.2,36.2,43.9,37.6,32.4,89,71,44,30.10,30.00,0,0,0,0.00
2012-2-15,66.8,49.0,35.5,38.4,30.1,22.3,85,52,24,30.19,30.04,0,0,0,0.00
2012-2-16,72.2,51.8,40.9,40.4,33.0,24.2,84,51,26,30.26,30.18,0,0,0,0.00
2012-2-17,67.7,50.4,39.7,52.1,43.0,35.6,89,77,52,30.27,30.16,0,0,0,0.00
2012-2-18,63.6,49.0,38.0,46.5,38.9,31.0,90,70,39,30.19,30.09,0,0,0,0.00
2012-2-19,61.0,45.7,38.2,38.5,34.0,30.3,84,65,34,30.15,30.04,0,0,0,0.00
2012-2-20,60.6,49.6,43.2,48.5,43.6,38.6,92,80,63,30.22,30.08,0,0,0,0.00
2012-2-21,71.1,53.1,39.7,53.8,46.1,36.7,91,78,53,30.31,30.21,0,0,0,0.00
2012-2-22,80.7,62.5,50.8,49.5,46.1,40.5,87,59,26,30.29,30.09,0,0,0,0.00
2012-2-23,83.3,60.4,48.4,45.5,36.8,25.3,75,47,14,30.09,29.97,0,0,0,0.00
2012-2-24,76.2,58.5,45.7,43.2,37.6,28.1,71,48,23,30.18,29.98,0,0,0,0.00
2012-2-25,64.6,49.8,41.1,39.7,33.5,30.6,72,55,32,30.34,30.17,0,0,0,0.00
2012-2-26,59.4,43.8,33.4,35.6,30.2,26.2,79,61,34,30.20,29.85,0,0,0,0.00
2012-2-27,61.8,43.4,30.3,34.9,30.7,25.2,84,63,33,29.97,29.80,0,0,0,0.00
2012-2-28,54.2,43.1,33.3,43.6,34.8,28.1,90,74,48,30.20,29.97,0,0,0,0.22
2012-2-29,52.7,46.1,37.7,46.6,41.0,33.6,94,83,65,30.23,30.02,0,0,0,0.38
2012-3-1,59.0,47.4,37.9,48.9,40.4,34.1,91,78,48,30.26,30.17,0,0,0,0.30
2012-3-2,71.5,49.8,34.8,38.3,33.4,28.7,84,57,26,30.36,30.26,0,0,0,0.00
2012-3-3,74.4,52.3,37.7,47.4,39.0,33.3,86,63,35,30.35,30.24,0,0,0,0.00
2012-3-4,78.1,55.5,40.8,51.0,43.2,36.2,88,66,37,30.24,30.06,0,0,0,0.00
2012-3-5,68.8,50.5,38.7,49.2,41.7,35.5,90,74,42,30.09,29.99,0,0,0,0.00
2012-3-6,60.8,47.8,36.7,43.3,31.5,26.1,87,56,30,30.10,29.92,0,0,0,0.00
2012-3-7,77.6,51.1,35.1,33.6,27.0,17.7,71,44,15,30.18,30.09,0,0,0,0.00
2012-3-8,74.9,51.6,34.6,41.4,33.1,28.0,78,53,26,30.34,30.18,0,0,0,0.00
2012-3-9,76.4,51.6,35.9,43.5,35.2,29.9,83,57,24,30.34,30.15,0,0,0,0.00
2012-3-10,62.9,47.7,36.6,48.3,40.0,31.9,88,76,58,30.14,29.98,0,0,0,0.00
2012-3-11,60.7,48.5,38.4,48.3,40.5,34.0,89,75,46,30.05,30.00,0,0,0,0.07
2012-3-12,57.2,47.2,36.2,44.9,39.0,32.8,90,74,53,30.05,29.92,0,0,0,0.04
2012-3-13,52.3,50.9,49.0,49.8,48.3,44.9,92,91,87,29.95,29.82,0,0,0,2.73
2012-3-14,55.9,52.9,51.4,53.6,50.6,49.2,92,92,90,30.11,29.94,0,0,0,0.57
2012-3-15,58.0,54.2,52.4,54.5,50.9,49.6,93,89,78,30.14,30.03,0,0,0,0.10
2012-3-16,54.1,51.2,42.9,51.8,48.8,40.5,92,92,90,30.03,29.70,0,0,0,1.17
2012-3-17,57.9,44.8,36.2,45.9,36.7,32.4,92,76,45,29.71,29.49,0,0,0,0.00
2012-3-18,54.8,44.2,37.3,38.1,32.5,27.4,84,65,41,29.94,29.63,0,0,0,0.00
2012-3-19,56.9,45.0,34.6,35.8,32.4,28.8,84,63,42,30.10,29.93,0,0,0,0.00
2012-3-20,60.1,51.9,45.5,47.8,41.2,31.9,81,67,58,30.20,30.09,0,0,0,0.00
2012-3-21,67.7,56.8,49.5,53.7,49.1,44.8,87,76,56,30.18,29.97,0,0,0,0.00
2012-3-22,65.5,52.3,37.6,45.5,35.1,29.9,79,54,37,30.00,29.90,0,0,0,0.06
2012-3-23,59.4,46.8,34.5,40.9,35.4,30.3,92,67,40,30.09,29.86,0,0,0,0.00
2012-3-24,50.5,44.4,39.4,44.0,39.1,33.8,92,82,54,29.91,29.80,0,0,0,1.03
2012-3-25,58.6,46.2,39.5,47.0,40.1,35.6,91,80,54,29.89,29.79,0,0,0,0.20
2012-3-26,54.9,45.3,33.6,43.6,37.5,30.4,92,75,56,30.08,29.89,0,0,0,0.00
2012-3-27,52.1,49.6,46.8,49.4,46.2,40.1,92,88,69,30.01,29.84,0,0,0,1.41
2012-3-28,64.4,54.0,45.6,49.6,46.3,41.3,92,77,47,30.10,29.90,0,0,0,0.06
2012-3-29,56.4,51.3,44.3,50.3,46.8,41.1,90,85,73,30.12,30.06,0,0,0,0.02
2012-3-30,58.6,54.4,52.3,54.3,51.3,49.4,91,89,84,30.09,29.87,0,0,0,0.05
2012-3-31,56.2,51.2,45.0,51.6,45.7,41.5,90,82,60,30.00,29.68,0,0,0,0.58
2012-4-1,64.5,50.4,41.8,42.6,38.3,35.8,90,65,40,30.28,30.00,0,0,0,0.01
2012-4-2,66.5,52.0,40.5,45.5,40.4,35.5,84,67,38,30.27,30.05,0,0,0,0.00
2012-4-3,65.8,51.0,41.1,49.5,43.9,37.9,90,78,52,30.09,29.99,0,0,0,0.02
2012-4-4,64.4,48.1,36.2,40.4,35.5,31.6,90,65,34,30.20,30.08,0,0,0,0.00
2012-4-5,62.6,47.4,36.2,33.7,31.8,27.2,81,58,28,30.16,30.06,0,0,0,0.00
2012-4-6,64.5,53.0,38.7,37.4,33.1,29.9,71,48,36,30.23,30.17,0,0,0,0.00
2012-4-7,71.1,50.3,34.5,41.3,35.4,28.5,82,60,31,30.18,30.03,0,0,0,0.00
2012-4-8,68.0,50.3,36.3,46.4,37.7,32.1,87,64,39,30.08,30.00,0,0,0,0.00
2012-4-9,73.3,54.2,41.7,45.7,38.0,20.6,88,62,16,30.02,29.82,0,0,0,0.00
2012-4-10,54.2,51.8,49.2,51.3,48.3,43.6,92,88,75,29.88,29.80,0,0,0,0.85
2012-4-11,57.2,51.0,47.7,49.8,45.9,42.8,95,83,61,29.95,29.79,0,0,0,0.13
2012-4-12,59.0,49.6,44.1,46.8,43.0,37.5,92,79,47,30.01,29.73,0,0,0,1.11
2012-4-13,57.1,48.5,42.1,45.5,41.2,37.1,90,77,53,29.86,29.70,0,0,0,0.33
2012-4-14,68.6,52.7,38.4,48.2,41.4,33.6,86,67,41,30.11,29.87,0,0,0,0.00
2012-4-15,66.8,53.0,41.6,52.3,45.5,38.4,92,77,57,30.21,30.11,0,0,0,0.00
2012-4-16,67.3,53.6,42.2,50.0,43.9,38.9,90,72,40,30.23,30.17,0,0,0,0.00
2012-4-17,67.5,53.1,43.4,53.9,46.9,40.3,90,80,59,30.18,30.08,0,0,0,0.00
2012-4-18,73.0,58.3,46.9,54.1,48.5,43.5,90,72,48,30.15,30.07,0,0,0,0.00
2012-4-19,81.0,63.8,50.7,61.9,54.7,46.6,90,74,48,30.16,30.05,0,0,0,0.00
2012-4-20,89.8,71.7,58.1,63.4,56.0,47.3,84,61,32,30.07,29.93,0,0,0,0.00
2012-4-21,91.4,70.3,53.9,65.1,53.8,44.8,80,58,39,29.97,29.83,0,0,0,0.00
2012-4-22,82.3,62.5,52.1,60.4,52.7,48.3,88,72,46,29.91,29.84,0,0,0,0.00
2012-4-23,62.3,55.6,51.9,52.6,50.5,48.5,92,83,69,30.00,29.90,0,0,0,0.02
2012-4-24,66.0,59.1,54.8,57.5,53.2,50.7,92,81,68,30.05,29.96,0,0,0,0.04
2012-4-25,68.1,60.7,55.1,55.3,52.5,50.7,88,75,59,30.01,29.75,0,0,0,0.00
2012-4-26,64.5,57.7,48.4,52.1,44.7,38.3,90,64,43,30.19,29.76,0,0,0,0.05
2012-4-27,75.6,56.8,40.3,49.5,41.8,35.3,85,60,32,30.24,30.11,0,0,0,0.00
2012-4-28,81.2,63.5,48.2,56.7,48.6,40.0,78,60,39,30.14,29.86,0,0,0,0.00
2012-4-29,67.7,57.4,52.5,53.4,48.7,46.3,81,73,60,29.89,29.85,0,0,0,0.00
2012-4-30,86.1,64.2,49.0,60.0,49.7,44.8,87,62,37,29.94,29.86,0,0,0,0.00
2012-5-1,74.8,57.8,43.7,50.8,44.6,38.1,88,65,33,29.91,29.82,0,0,0,0.00
2012-5-2,69.1,52.8,41.0,47.3,40.7,35.6,86,65,39,29.95,29.86,0,0,0,0.00
2012-5-3,56.4,51.1,44.8,53.2,47.2,39.7,90,87,80,30.04,29.94,0,0,0,0.14
2012-5-4,69.5,56.7,47.7,49.3,44.8,40.7,90,67,41,30.20,30.07,0,0,0,0.00
2012-5-5,82.7,62.9,45.3,47.6,41.3,33.1,78,50,18,30.21,30.04,0,0,0,0.00
2012-5-6,90.2,62.6,49.7,51.3,43.2,37.6,71,52,20,30.06,29.97,0,0,0,0.00
2012-5-7,91.5,68.5,50.3,54.4,47.5,42.1,79,53,20,30.00,29.92,0,0,0,0.00
2012-5-8,89.1,67.3,47.5,58.1,49.0,42.8,86,57,26,29.95,29.88,0,0,0,0.00
2012-5-9,82.1,62.6,47.2,57.9,49.3,42.9,88,65,38,29.93,29.85,0,0,0,0.00
2012-5-10,82.5,63.2,46.8,53.6,45.7,40.6,81,57,30,29.90,29.81,0,0,0,0.00
2012-5-11,87.7,60.3,48.8,55.0,45.6,42.0,81,63,23,29.96,29.85,0,0,0,0.00
2012-5-12,81.8,59.6,46.9,55.8,47.3,42.6,87,67,31,30.03,29.95,0,0,0,0.00
2012-5-13,64.5,53.9,47.9,51.3,47.1,43.9,92,78,60,30.08,30.02,0,0,0,0.00
2012-5-14,69.7,58.2,48.0,51.9,48.4,44.0,89,71,51,30.09,30.02,0,0,0,0.00
2012-5-15,71.1,56.1,48.0,54.3,48.1,44.0,90,76,53,30.04,29.97,0,0,0,0.00
2012-5-16,73.0,56.5,49.4,56.8,49.1,45.8,88,77,55,30.02,29.91,0,0,0,0.00
2012-5-17,78.4,60.3,49.3,55.2,48.3,43.8,92,68,34,29.93,29.78,0,0,0,0.00
2012-5-18,82.0,62.0,49.4,52.8,44.5,38.3,77,55,30,29.95,29.87,0,0,0,0.00
2012-5-19,83.0,62.4,43.8,54.2,46.3,39.3,85,59,32,29.97,29.90,0,0,0,0.00
2012-5-20,84.5,64.4,48.9,56.3,48.7,41.9,79,59,34,29.97,29.89,0,0,0,0.00
2012-5-21,76.0,61.2,48.7,56.7,51.2,44.7,89,71,49,30.08,29.96,0,0,0,0.00
2012-5-22,83.1,64.8,52.1,54.0,50.1,46.3,90,63,34,30.11,30.01,0,0,0,0.00
2012-5-23,78.0,63.6,53.9,49.1,45.9,40.4,76,55,34,30.04,29.89,0,0,0,0.00
2012-5-24,75.6,59.6,45.0,47.8,42.4,38.6,82,55,36,29.91,29.71,0,0,0,0.00
2012-5-25,68.4,55.9,47.0,51.6,41.6,37.4,78,60,37,29.82,29.69,0,0,0,0.02
2012-5-26,58.2,48.1,44.0,47.2,43.0,40.2,89,82,66,29.89,29.81,0,0,0,0.00
2012-5-28,70.2,56.7,44.5,50.7,46.3,40.6,88,70,48,30.06,29.97,0,0,0,0.00
2012-5-29,74.8,58.5,43.2,53.8,46.9,39.3,89,68,47,30.05,29.99,0,0,0,0.00
2012-5-30,84.6,62.3,46.0,57.6,48.9,42.0,88,65,36,30.08,29.98,0,0,0,0.00
2012-5-31,89.0,66.1,47.6,59.9,50.8,43.3,87,62,35,30.01,29.83,0,0,0,0.00
2012-6-1,92.5,69.3,53.1,63.1,54.4,48.1,85,62,37,29.83,29.72,0,0,0,0.00
2012-6-2,87.6,69.3,52.7,61.5,54.2,45.5,86,62,28,29.88,29.79,0,0,0,0.00
2012-6-3,80.0,67.0,56.5,54.3,49.0,46.3,70,54,37,29.92,29.85,0,0,0,0.00
2012-6-4,65.4,57.7,49.0,53.2,48.6,41.3,89,72,56,30.09,29.86,0,0,0,0.03
2012-6-5,72.9,57.4,42.6,43.8,41.6,38.2,87,59,33,30.17,30.09,0,0,0,0.00
2012-6-6,79.1,60.4,43.7,48.2,43.2,38.2,84,56,28,30.13,29.93,0,0,0,0.00
2012-6-7,85.3,64.7,46.2,55.0,47.4,39.8,80,56,28,30.00,29.92,0,0,0,0.00
2012-6-8,79.3,62.8,49.2,48.9,44.1,39.7,83,54,28,29.98,29.88,0,0,0,0.00
2012-6-9,85.8,65.3,44.9,46.3,39.0,27.0,75,44,15,30.00,29.87,0,0,0,0.00
2012-6-10,97.2,73.9,55.0,48.0,42.4,35.0,55,35,16,29.89,29.84,0,0,0,0.00
2012-6-11,93.6,74.5,59.0,55.2,49.0,41.8,64,43,24,29.93,29.86,0,0,0,0.00
2012-6-12,92.6,73.5,56.9,59.1,52.1,46.8,70,49,31,29.94,29.84,0,0,0,0.00
2012-6-13,84.8,67.1,50.9,58.9,51.5,45.6,84,60,39,29.86,29.70,0,0,0,0.00
2012-6-14,89.2,66.3,49.4,57.3,49.9,43.9,83,60,30,29.78,29.71,0,0,0,0.00
2012-6-15,92.0,72.2,57.8,56.2,47.2,37.5,62,42,29,29.78,29.72,0,0,0,0.00
2012-6-16,103.6,78.3,56.3,63.9,55.6,49.3,80,50,24,29.83,29.73,0,0,0,0.00
2012-6-17,79.6,67.5,51.9,57.0,53.2,47.8,87,62,44,29.87,29.73,0,0,0,0.00
2012-6-18,73.4,58.7,50.9,53.6,49.1,44.4,89,72,49,29.90,29.78,0,0,0,0.00
2012-6-19,81.2,64.2,48.5,56.2,49.8,44.2,87,62,39,29.90,29.81,0,0,0,0.00
2012-6-20,93.2,69.2,52.7,55.8,49.8,45.1,80,55,23,29.83,29.76,0,0,0,0.00
2012-6-21,70.1,56.5,50.0,52.6,47.9,45.0,87,74,52,29.92,29.76,0,0,0,0.00
2012-6-22,63.7,55.3,48.2,53.5,49.1,44.2,87,80,68,29.96,29.85,0,0,0,0.00
2012-6-23,69.4,56.6,44.9,49.0,45.9,41.3,90,69,42,29.93,29.83,0,0,0,0.00
2012-6-24,72.3,56.5,42.6,48.5,44.2,39.0,89,66,42,30.02,29.91,0,0,0,0.00
2012-6-25,71.8,56.8,43.7,50.5,46.1,39.2,88,69,46,30.07,30.01,0,0,0,0.00
2012-6-26,80.3,62.3,44.1,51.9,46.9,40.5,89,61,36,30.05,29.88,0,0,0,0.00
2012-6-27,85.3,66.1,51.3,53.6,47.3,42.6,79,54,26,29.91,29.85,0,0,0,0.00
2012-6-28,82.3,63.5,49.0,55.5,50.1,44.8,87,65,37,30.05,29.91,0,0,0,0.00
2012-6-29,77.5,61.8,49.9,58.2,52.7,46.1,90,74,50,30.08,30.00,0,0,0,0.00
2012-6-30,80.9,65.6,54.5,62.3,56.5,50.4,89,74,52,30.01,29.91,0,0,0,0.00
2012-7-1,79.4,66.4,58.6,62.3,57.5,52.1,89,74,53,29.93,29.83,0,0,0,0.02
2012-7-2,85.1,66.4,54.5,61.4,54.4,48.3,89,68,43,29.86,29.80,0,0,0,0.00
2012-7-3,88.3,67.7,49.3,57.7,51.5,45.3,88,60,35,29.88,29.77,0,0,0,0.00
2012-7-4,82.5,65.7,52.3,57.3,51.7,47.1,86,63,41,29.84,29.78,0,0,0,0.00
2012-7-5,77.7,61.1,49.4,53.6,49.1,45.2,87,67,39,29.95,29.84,0,0,0,0.00
2012-7-6,84.3,63.5,46.4,57.3,49.4,42.7,89,64,38,30.00,29.93,0,0,0,0.00
2012-7-7,92.5,67.6,48.9,56.4,49.8,44.0,86,58,27,29.97,29.89,0,0,0,0.00
2012-7-8,82.7,62.2,47.4,54.8,49.1,43.3,89,66,35,30.00,29.93,0,0,0,0.00
2012-7-9,85.3,64.6,52.0,56.5,50.8,48.2,87,65,34,30.03,29.91,0,0,0,0.00
2012-7-10,94.8,69.4,48.4,59.9,51.3,44.1,87,58,29,29.93,29.80,0,0,0,0.00
2012-7-11,96.0,72.4,53.1,62.1,53.2,47.4,83,55,30,29.85,29.77,0,0,0,0.00
2012-7-12,93.2,69.0,52.7,61.1,52.9,46.8,82,60,34,29.81,29.74,0,0,0,0.00
2012-7-13,77.5,60.0,50.0,55.0,49.6,45.0,86,71,46,29.88,29.79,0,0,0,0.00
2012-7-14,79.6,61.4,53.3,57.6,51.3,48.3,85,71,47,29.93,29.85,0,0,0,0.00
2012-7-15,78.7,60.6,50.2,57.9,51.5,46.2,89,74,47,29.90,29.82,0,0,0,0.00
2012-7-16,71.0,56.7,51.2,54.4,49.8,47.5,89,79,53,29.89,29.81,0,0,0,0.00
2012-7-17,64.0,58.5,51.4,53.3,51.4,46.3,87,78,66,29.99,29.87,0,0,0,0.00
2012-7-18,75.7,59.2,47.6,55.8,50.3,43.9,90,74,49,30.02,29.95,0,0,0,0.00
2012-7-19,77.3,61.6,53.1,57.0,52.8,48.9,89,74,49,30.03,29.96,0,0,0,0.00
2012-7-20,90.4,68.9,50.8,60.1,53.9,47.4,90,63,34,30.07,29.95,0,0,0,0.00
2012-7-21,98.2,73.5,55.2,61.8,54.8,49.8,85,57,27,29.97,29.84,0,0,0,0.00
2012-7-22,93.1,70.4,53.1,60.9,53.4,48.1,85,59,31,29.88,29.79,0,0,0,0.00
2012-7-23,84.3,64.5,53.8,58.7,51.9,47.7,83,66,42,29.93,29.85,0,0,0,0.00
2012-7-24,77.8,62.2,53.0,55.7,51.7,47.7,85,70,44,29.97,29.91,0,0,0,0.00
2012-7-25,77.0,62.1,53.1,56.4,51.8,48.1,85,71,48,30.00,29.92,0,0,0,0.00
2012-7-26,73.3,58.7,51.9,54.6,50.4,48.0,87,75,51,29.99,29.92,0,0,0,0.00
2012-7-27,80.3,60.2,50.0,58.2,51.2,46.9,92,74,46,30.01,29.95,0,0,0,0.00
2012-7-28,82.9,65.2,53.3,57.3,52.8,49.2,87,67,40,30.02,29.94,0,0,0,0.00
2012-7-29,86.5,65.6,50.9,59.2,52.4,46.6,88,66,39,30.02,29.92,0,0,0,0.00
2012-7-30,95.3,70.3,51.3,61.8,53.5,47.3,88,60,30,29.96,29.84,0,0,0,0.00
2012-7-31,94.5,69.2,51.9,59.8,52.5,46.9,85,59,31,29.95,29.88,0,0,0,0.00
2012-8-1,85.6,66.4,51.4,58.8,52.1,47.2,89,64,38,30.02,29.92,0,0,0,0.00
2012-8-2,88.0,65.1,50.9,59.4,51.7,46.7,89,66,36,29.97,29.85,0,0,0,0.00
2012-8-3,81.9,61.7,52.0,57.9,51.5,47.6,88,72,43,29.88,29.80,0,0,0,0.00
2012-8-4,67.2,57.4,49.8,55.7,51.0,46.4,89,80,65,29.96,29.82,0,0,0,0.00
2012-8-5,74.8,61.8,56.9,58.7,54.8,52.1,89,79,57,30.07,29.95,0,0,0,0.00
2012-8-6,84.0,64.9,55.4,58.1,53.5,49.2,89,70,38,30.12,30.01,0,0,0,0.00
2012-8-7,88.4,66.9,50.1,57.8,51.4,46.4,89,62,33,30.03,29.94,0,0,0,0.00
2012-8-8,96.4,69.7,49.2,58.7,50.9,44.6,87,57,25,29.99,29.87,0,0,0,0.00
2012-8-9,100.0,71.5,51.3,59.9,52.4,46.0,84,56,25,29.91,29.78,0,0,0,0.00
2012-8-10,94.4,69.7,52.5,59.2,52.1,47.2,84,58,26,29.82,29.70,0,0,0,0.00
2012-8-11,96.3,68.2,51.4,60.5,52.0,45.5,87,61,30,29.81,29.71,0,0,0,0.00
2012-8-12,87.9,64.2,48.9,56.5,49.8,44.6,88,64,33,29.84,29.77,0,0,0,0.00
2012-8-13,57.4,52.9,50.6,49.6,47.1,45.9,84,81,75,29.84,29.79,0,0,0,0.00
2012-8-14,86.1,65.7,52.9,55.2,50.9,46.9,83,61,30,29.81,29.76,0,0,0,0.00
2012-8-15,81.1,62.7,54.0,57.2,52.3,48.6,87,71,39,29.90,29.79,0,0,0,0.00
2012-8-16,85.1,63.1,52.9,57.5,51.9,48.7,87,70,38,29.95,29.86,0,0,0,0.00
2012-8-17,82.5,63.4,51.9,56.8,52.1,48.8,92,70,40,29.99,29.88,0,0,0,0.00
2012-8-18,88.2,67.6,54.4,58.4,52.8,48.1,81,62,33,29.94,29.86,0,0,0,0.00
2012-8-19,82.1,61.4,48.1,56.1,50.2,44.1,90,69,40,29.94,29.86,0,0,0,0.00
2012-8-20,89.1,62.8,49.5,57.6,50.4,45.4,89,68,33,29.92,29.82,0,0,0,0.00
2012-8-21,85.8,64.0,50.8,57.3,51.4,46.1,88,67,36,29.90,29.81,0,0,0,0.00
2012-8-22,82.8,61.0,48.5,58.2,51.0,44.5,89,72,41,29.91,29.84,0,0,0,0.00
2012-8-23,81.8,60.8,51.4,58.8,51.4,46.1,90,74,44,29.94,29.82,0,0,0,0.00
2012-8-24,83.1,60.3,48.6,57.9,50.4,44.6,90,73,42,29.89,29.82,0,0,0,0.00
2012-8-25,73.1,56.6,49.8,54.1,49.1,46.5,92,77,50,29.87,29.78,0,0,0,0.00
2012-8-26,77.2,60.1,51.5,53.9,49.8,45.6,88,71,42,29.96,29.82,0,0,0,0.01
2012-8-27,89.6,65.2,48.6,61.7,52.4,44.9,92,67,38,30.04,29.93,0,0,0,0.00
2012-8-28,92.8,69.7,52.5,57.4,51.6,46.6,88,58,26,30.00,29.91,0,0,0,0.00
2012-8-29,97.9,71.2,51.5,56.3,48.5,43.0,80,49,21,29.91,29.77,0,0,0,0.00
2012-8-30,85.6,63.6,51.4,55.9,48.3,41.7,85,60,35,29.81,29.74,0,0,0,0.00
2012-8-31,71.9,57.4,49.8,54.8,49.8,45.3,85,76,54,29.92,29.80,0,0,0,0.00
2012-9-1,80.4,59.9,49.1,57.1,50.3,44.8,88,73,44,30.03,29.92,0,0,0,0.00
2012-9-2,91.3,65.2,46.4,55.0,48.4,40.9,90,61,20,29.98,29.87,0,0,0,0.00
2012-9-3,94.8,67.9,49.5,56.4,48.9,44.0,84,56,21,29.95,29.88,0,0,0,0.00
2012-9-4,85.6,61.4,47.6,56.3,49.6,43.1,88,69,36,30.00,29.93,0,0,0,0.00
2012-9-5,74.0,58.2,50.8,55.2,50.2,47.8,90,76,50,29.99,29.91,0,0,0,0.00
2012-9-6,79.0,58.9,48.8,52.9,48.5,43.6,87,71,40,30.01,29.94,0,0,0,0.00
2012-9-7,83.1,61.1,49.2,52.7,48.0,44.9,86,66,33,30.09,29.99,0,0,0,0.00
2012-9-8,80.0,61.2,50.2,54.0,49.4,45.6,88,68,41,30.05,29.92,0,0,0,0.00
2012-9-9,86.3,61.8,44.2,53.6,47.6,40.4,89,64,31,29.98,29.85,0,0,0,0.00
2012-9-10,89.7,64.9,47.4,55.6,48.9,43.3,89,61,27,29.91,29.78,0,0,0,0.00
2012-9-11,85.9,63.6,50.8,58.2,51.3,46.2,87,67,38,29.94,29.80,0,0,0,0.00
2012-9-12,84.1,62.2,51.5,56.7,51.3,46.8,89,71,36,30.06,29.93,0,0,0,0.00
2012-9-13,87.8,63.0,49.2,57.1,50.5,45.2,88,67,33,30.09,29.99,0,0,0,0.00
2012-9-14,53.8,53.0,52.6,49.6,49.1,48.2,88,87,84,30.06,30.03,0,0,0,0.00
2012-9-15,53.1,52.4,51.4,49.0,48.4,47.8,88,86,85,30.05,30.04,0,0,0,0.00
2012-9-16,57.0,53.8,51.4,46.9,46.3,45.6,81,76,69,30.00,29.97,0,0,0,0.00
2012-9-17,75.7,57.7,49.2,52.2,47.6,45.2,86,72,43,30.06,29.98,0,0,0,0.00
2012-9-18,82.5,58.1,48.6,53.0,48.0,44.9,89,72,36,30.11,30.00,0,0,0,0.00
2012-9-19,80.8,58.9,49.1,54.2,48.7,44.3,89,72,40,30.10,30.00,0,0,0,0.00
2012-9-20,83.1,59.7,42.7,53.8,46.4,39.3,90,65,34,30.06,29.94,0,0,0,0.00
2012-9-21,89.0,63.2,45.0,52.3,46.1,40.1,86,58,27,29.98,29.85,0,0,0,0.00
2012-9-22,93.3,64.7,46.3,54.5,47.2,41.3,86,58,26,29.92,29.84,0,0,0,0.00
2012-9-23,88.4,63.2,50.6,52.1,46.8,43.3,85,59,24,29.95,29.87,0,0,0,0.00
2012-9-24,84.0,60.8,50.9,56.4,50.0,45.7,89,71,37,29.95,29.85,0,0,0,0.00
2012-9-25,77.2,58.9,47.8,55.8,48.9,43.8,88,72,45,29.91,29.82,0,0,0,0.00
2012-9-26,81.6,59.6,47.8,57.7,49.9,44.1,90,73,43,29.88,29.81,0,0,0,0.00
2012-9-27,95.8,63.7,47.1,59.7,50.3,43.1,89,66,29,29.92,29.81,0,0,0,0.00
2012-9-28,74.1,56.8,48.5,54.6,49.2,44.5,92,77,50,29.96,29.85,0,0,0,0.00
2012-9-29,86.5,61.9,50.5,57.4,50.6,46.3,91,70,34,30.02,29.94,0,0,0,0.00
2012-9-30,101.8,68.6,47.7,55.0,47.3,43.3,88,55,19,30.05,29.95,0,0,0,0.00
2012-10-1,106.4,74.8,54.8,54.4,44.7,38.9,63,39,14,29.98,29.86,0,0,0,0.00
2012-10-2,108.2,78.5,58.7,53.2,45.2,35.9,52,34,15,29.86,29.75,0,0,0,0.00
2012-10-3,94.9,70.8,57.4,56.5,48.6,40.7,85,49,25,29.98,29.78,0,0,0,0.00
2012-10-4,72.2,59.6,51.9,55.6,51.9,47.3,85,77,53,30.12,29.98,0,0,0,0.00
2012-10-5,76.1,59.3,49.2,55.5,50.4,45.5,89,74,46,30.14,30.05,0,0,0,0.00
2012-10-6,77.1,58.1,47.0,54.2,49.1,43.3,90,74,44,30.06,29.95,0,0,0,0.00
2012-10-7,78.9,59.3,49.7,55.4,49.9,44.4,90,73,43,30.00,29.91,0,0,0,0.00
2012-10-8,73.9,56.6,45.0,53.3,47.6,41.6,90,74,47,30.03,29.97,0,0,0,0.00
2012-10-9,60.4,49.6,46.7,52.1,45.9,43.2,90,87,73,30.02,29.99,0,0,0,0.00
2012-10-11,56.4,54.3,53.2,50.2,48.9,48.2,85,82,78,29.94,29.85,0,0,0,0.00
2012-10-12,62.6,56.0,49.7,50.6,48.8,45.1,85,77,63,30.22,29.94,0,0,0,0.00
2012-10-13,80.0,59.9,46.3,58.5,50.6,43.2,90,74,46,30.30,30.15,0,0,0,0.00
2012-10-14,82.1,61.8,52.0,60.5,53.8,48.3,91,77,47,30.20,30.05,0,0,0,0.00
2012-10-15,89.0,66.5,49.9,60.2,54.2,46.7,91,68,33,30.08,29.94,0,0,0,0.00
2012-10-16,91.7,73.4,64.0,64.6,59.4,52.3,83,64,37,29.98,29.83,0,0,0,0.00
2012-10-17,95.5,70.4,53.0,52.4,44.6,32.8,72,43,19,29.90,29.79,0,0,0,0.00
2012-10-18,95.0,67.7,53.0,57.1,46.9,37.3,85,51,18,30.01,29.86,0,0,0,0.00
2012-10-19,80.1,64.5,56.4,58.9,55.9,52.3,87,75,47,30.04,29.91,0,0,0,0.00
2012-10-20,82.5,61.4,51.0,56.4,48.9,37.6,90,67,22,29.91,29.75,0,0,0,0.00
2012-10-21,72.1,55.0,44.7,47.3,39.0,33.4,83,57,29,29.91,29.81,0,0,0,0.04
2012-10-22,61.4,53.3,48.0,50.7,47.2,43.6,91,81,56,29.91,29.71,0,0,0,1.21
2012-10-23,64.3,51.3,43.6,48.6,43.3,40.4,91,76,45,30.05,29.90,0,0,0,0.01
2012-10-24,66.7,55.0,49.0,52.5,47.8,43.4,92,78,49,30.19,30.00,0,0,0,0.17
2012-10-25,74.1,57.5,50.8,53.9,46.8,39.2,90,70,39,30.26,30.18,0,0,0,0.07
2012-10-26,80.6,60.5,46.8,51.9,45.9,40.8,82,62,31,30.23,30.08,0,0,0,0.00
2012-10-27,86.6,66.7,54.5,58.5,54.3,49.4,86,67,38,30.08,29.93,0,0,0,0.00
2012-10-28,84.7,63.9,53.2,59.2,53.6,49.3,90,72,39,30.00,29.92,0,0,0,0.00
2012-10-29,82.1,60.4,50.5,58.0,51.8,46.6,91,75,42,30.10,29.99,0,0,0,0.00
2012-10-30,72.2,55.6,45.4,57.2,50.1,42.3,90,82,58,30.07,29.95,0,0,0,0.00
2012-10-31,59.7,56.6,54.7,55.0,53.4,51.8,92,89,78,29.99,29.94,0,0,0,0.91
2012-11-1,73.9,58.3,47.9,58.6,52.8,44.2,92,83,56,30.05,29.97,0,0,0,0.04
2012-11-2,68.0,53.1,44.6,52.7,46.6,41.6,91,80,56,30.08,30.02,0,0,0,0.00
2012-11-3,77.8,59.3,48.5,56.8,50.3,44.4,90,74,47,30.14,30.05,0,0,0,0.00
2012-11-4,84.7,63.0,52.2,60.9,53.7,49.1,91,74,42,30.20,30.11,0,0,0,0.00
2012-11-5,86.7,63.6,52.5,61.7,54.3,49.4,92,74,42,30.13,30.03,0,0,0,0.00
2012-11-6,87.1,62.7,50.5,61.0,52.9,47.4,92,73,40,30.07,29.98,0,0,0,0.00
2012-11-7,58.9,53.7,49.6,53.4,50.1,45.7,91,88,81,30.03,29.89,0,0,0,0.00
2012-11-8,56.2,47.2,38.2,49.5,40.4,33.6,89,78,56,29.92,29.85,0,0,0,0.02
2012-11-9,59.5,44.2,35.0,41.4,36.9,31.8,90,77,45,29.98,29.89,0,0,0,0.00
2012-11-10,63.2,44.7,35.0,43.1,34.6,31.9,91,71,35,30.24,29.97,0,0,0,0.00
2012-11-11,61.5,44.7,34.1,43.2,36.1,30.6,92,73,47,30.38,30.24,0,0,0,0.00
2012-11-12,67.4,49.1,38.2,43.3,38.0,33.5,86,68,36,30.38,30.25,0,0,0,0.00
2012-11-13,67.5,52.3,41.6,47.1,41.5,36.7,84,69,46,30.27,30.08,0,0,0,0.00
2012-11-23,67.3,52.6,45.7,49.8,45.7,42.3,88,78,51,30.20,30.16,0,0,0,0.00
2012-11-24,73.6,52.3,41.3,51.2,45.5,38.6,92,79,43,30.19,30.03,0,0,0,0.00
2012-11-25,70.1,53.0,44.2,53.3,47.1,41.5,91,81,52,30.03,29.92,0,0,0,0.00
2012-11-26,66.9,51.3,42.5,53.7,46.3,39.8,92,84,61,30.07,29.96,0,0,0,0.00
2012-11-27,60.3,54.6,49.7,50.1,48.4,46.9,90,80,67,30.10,29.98,0,0,0,0.00
2012-11-28,57.1,54.6,51.8,54.5,50.1,47.0,91,85,71,30.02,29.78,0,0,0,1.43
2012-11-29,59.0,56.2,52.5,56.7,52.8,49.4,92,88,76,30.01,29.78,0,0,0,1.17
2012-11-30,59.0,57.0,54.1,56.7,54.7,51.8,93,92,92,29.97,29.74,0,0,0,2.09
2012-12-1,59.6,56.9,55.3,57.6,54.7,53.0,95,93,92,30.00,29.82,0,0,0,0.70
2012-12-2,59.6,53.0,42.9,57.6,49.3,39.9,93,87,65,30.10,29.66,0,0,0,1.42
2012-12-3,60.4,49.2,39.3,50.2,44.4,36.9,92,84,67,30.20,30.08,0,0,0,0.00
2012-12-4,57.4,53.7,50.9,50.8,49.2,46.2,91,85,73,30.22,30.12,0,0,0,0.63
2012-12-5,59.2,57.2,53.0,57.6,55.0,50.4,95,92,91,30.15,30.08,0,0,0,0.36
2012-12-6,64.0,52.7,44.5,54.5,48.8,41.5,93,87,62,30.13,30.06,0,0,0,0.01
2012-12-7,63.6,48.6,40.9,47.0,42.3,37.3,90,80,53,30.14,30.06,0,0,0,0.00
2012-12-8,60.6,47.0,36.6,48.0,40.4,33.7,92,78,58,30.12,30.04,0,0,0,0.00
2012-12-9,72.6,54.8,44.5,48.5,42.2,37.9,81,64,41,30.18,30.09,0,0,0,0.00
2012-12-10,69.5,51.3,42.4,51.1,44.6,39.3,91,79,51,30.23,30.10,0,0,0,0.00
2012-12-11,53.9,47.2,40.1,47.2,43.2,37.4,92,86,75,30.09,29.83,0,0,0,0.08
2012-12-12,54.0,44.1,36.5,45.3,38.9,32.7,92,82,59,29.89,29.80,0,0,0,0.00
2012-12-13,58.2,41.7,34.4,39.7,35.0,31.2,92,78,44,29.93,29.84,0,0,0,0.00
2012-12-14,54.6,41.4,34.3,41.5,36.1,31.0,90,82,56,30.04,29.81,0,0,0,0.01
2012-12-15,44.5,40.0,33.3,41.7,37.1,30.4,92,89,84,30.07,29.98,0,0,0,0.14
2012-12-16,51.9,46.7,42.8,49.6,44.2,40.1,92,91,90,30.10,29.98,0,0,0,0.34
2012-12-17,57.6,50.5,37.8,52.3,46.3,34.0,93,86,69,30.04,29.95,0,0,0,0.24
2012-12-18,53.2,40.7,31.4,36.2,31.2,27.4,89,70,44,30.20,29.98,0,0,0,0.00
2012-12-19,55.2,38.7,28.6,33.1,28.4,24.7,88,68,41,30.32,30.19,0,0,0,0.00
2012-12-20,53.2,46.9,40.9,44.8,35.6,26.8,88,65,55,30.20,29.95,0,0,0,0.28
2012-12-21,51.5,48.9,46.5,49.3,46.4,43.4,92,91,88,29.94,29.81,0,0,0,2.21
2012-12-22,56.3,48.4,45.1,48.9,44.5,42.2,92,87,63,30.04,29.79,0,0,0,0.77
2012-12-23,56.3,49.6,41.5,53.8,47.2,39.1,92,91,90,30.03,29.80,0,0,0,1.82
2012-12-24,55.7,44.2,36.9,46.4,40.2,34.5,97,86,65,30.20,30.00,0,0,0,0.02
2012-12-25,44.7,42.9,38.8,41.7,39.9,36.1,92,89,82,30.14,29.75,0,0,0,1.26
2012-12-26,55.5,45.0,38.7,47.0,40.2,36.4,92,84,64,30.10,29.84,0,0,0,0.07
2012-12-27,58.9,45.0,38.0,40.8,37.4,34.3,88,76,47,30.16,30.09,0,0,0,0.00
2012-12-28,49.5,41.9,34.4,40.6,36.5,31.5,91,82,64,30.17,30.03,0,0,0,0.08
2012-12-29,59.2,44.7,38.0,42.4,38.0,34.3,89,78,48,30.07,30.00,0,0,0,0.03
2012-12-30,59.0,42.4,34.1,40.2,35.1,30.8,91,77,45,30.18,30.04,0,0,0,0.00
2012-12-31,53.2,40.5,30.3,40.9,33.1,26.3,92,76,43,30.29,30.18,0,0,0,0.00
2013-1-1,62.9,41.5,31.9,37.0,32.0,29.0,91,72,32,30.28,30.19,0,0,0,0.00